Regional Weather Roundup
Issued by NWS Albany, NY

Home | Current Version | Previous Version | Text Only | Print | Product List | Glossary On
Versions: 1 2 3 4 5 6 7 8 9 10 11 12 13 14 15 16 17 18 19 20 21 22 23 24 25 26 27 28 29 30 31 32 33 34 35 36 37 38 39 40 41 42 43 44 45 46 47 48 49 50
000
ASUS41 KALY 221710
RWRALY

NEW YORK STATE HOURLY WEATHER ROUNDUP
NATIONAL WEATHER SERVICE ALBANY NY
100 PM EDT MON SEP 22 2014

NOTE: "FAIR" INDICATES FEW OR NO CLOUDS BELOW 12,000 FEET WITH NO
SIGNIFICANT WEATHER AND/OR NO OBSTRUCTIONS TO VISIBILITY.

NYZ032-033-038>043-046>054-057>066-NYZ062>081-221800-
EAST


CITY           SKY/WX    TMP DP  RH WIND       PRES   REMARKS
ALBANY         PTSUNNY   62  44  51 W18G36    29.91R
GLENS FALLS    PTSUNNY   63  42  46 W14G24    29.86S
POUGHKEEPSIE   SUNNY     70  46  42 NW18G25   29.88R
NEWBURGH       MOSUNNY   68  50  52 NW18G30   29.91R
MONTGOMERY     PTSUNNY   67  47  48 W14G25    29.91R
WHITE PLAINS   MOSUNNY   68  47  46 NW15G23   29.88R
ISLIP          PTSUNNY   71  49  45 NW16G22   29.85R
NEW YORK CITY  PTSUNNY   68  50  52 NW17G24   29.89R
CENTRAL PARK   CLOUDY    68  47  46 VRB7      29.92R
$$

NYZ005>009-017-018-044>046-055-056-221800-
CENTRAL


CITY           SKY/WX    TMP DP  RH WIND       PRES   REMARKS
FULTON         CLOUDY    51  41  68 W12       30.01R
SYRACUSE       CLOUDY    54  42  64 W15G21    30.01R
ROME           CLOUDY    52  41  66 W20G31    30.00R
ELMIRA         PTSUNNY   55  43  63 W14G23    30.05R
BINGHAMTON     CLOUDY    49  40  71 NW15G24   30.02R
MONTICELLO     CLOUDY    55  43  62 NW18G26   29.98R
$$

NYZ026>034-041>043-221800-
NORTH


CITY           SKY/WX    TMP DP  RH WIND       PRES   REMARKS
WATERTOWN      CLOUDY    53  37  54 W13       29.98R
FORT DRUM      NOT AVBL
MASSENA        CLOUDY    51  39  63 W16G25    29.91R
SARANAC LAKE   CLOUDY    44  39  82 W10G20    29.87R
PLATTSBURGH    PTSUNNY   54  41  61 VRB7G18   29.85R
$$

NYZ001>004-010>016-019>021-221800-
WEST


CITY           SKY/WX    TMP DP  RH WIND       PRES   REMARKS
NIAGARA FALLS  CLOUDY    52  41  66 NW10      30.09R
BUFFALO        CLOUDY    53  39  59 W12       30.09R
DUNKIRK        CLOUDY    52  40  63 W12G20    30.13R
JAMESTOWN      CLOUDY    48  39  71 NW12      30.12R
WELLSVILLE     CLOUDY    47  39  74 NW17      30.09R
ROCHESTER      PTSUNNY   55  38  52 W18G26    30.05R
PENN YAN       CLOUDY    53  40  61 W10G21    30.05R
$$

             KEY
       WCI = WIND CHILL INDEX
       VSB = VISIBILITY
       HX  = HEAT INDEX
$$



USA.gov is the U.S. government's official web portal to all federal, state and local government web resources and services.